This demonstration page uses our WeatherBlox Daily Observations layout. Learn more.

Left ArrowRight Arrow

Hourly Observations for August 20, 2019

Temp ( °F °C ) Dew Point ( °F °C ) Humidity (%) Winds ( mph kmh ) Pressure ( in mb ) Visibility ( mi km ) Precip ( " mm )
12:59 am 00:59 Mostly Cloudy 80 26.7 71 21.7 74 74 SW 6 9 30.06 1018 10 16 0.00 0.00
1:59 am 01:59 Mostly Cloudy 79 26.1 69 20.6 72 72 SSW 5 7 30.06 1018 10 16 0.00 0.00
2:59 am 02:59 Mostly Cloudy 78 25.6 69 20.6 74 74 SW 7 11 30.06 1018 10 16 0.00 0.00
3:59 am 03:59 Mostly Cloudy 78 25.6 69 20.6 74 74 WSW 8 13 30.06 1018 10 16 0.00 0.00
4:59 am 04:59 Partly Cloudy 77 25 69 20.6 77 77 WSW 6 9 30.07 1018 10 16 0.00 0.00
5:59 am 05:59 Mostly Cloudy 77 25 69 20.6 77 77 WSW 5 7 30.08 1019 10 16 0.00 0.00
6:59 am 06:59 Partly Cloudy 77 25 70 21.1 79 79 VRB 3 6 30.09 1019 10 16 0.00 0.00
7:59 am 07:59 Partly Cloudy 79 26.1 70 21.1 74 74 WSW 8 13 30.10 1019 10 16 0.00 0.00
8:59 am 08:59 Mostly Cloudy 81 27.2 71 21.7 72 72 WSW 7 11 30.10 1019 10 16 0.00 0.00
9:59 am 09:59 Mostly Cloudy 82 27.8 71 21.7 69 69 W 6 9 30.10 1019 10 16 0.00 0.00
10:59 am 10:59 Mostly Cloudy 85 29.4 72 22.2 65 65 WSW 6 9 30.10 1019 10 16 0.00 0.00
11:59 am 11:59 Mostly Cloudy 88 31.1 74 23.3 63 63 S 6 9 30.10 1019 10 16 0.00 0.00
12:59 pm 12:59 Mostly Cloudy 90 32.2 74 23.3 59 59 S 6 9 30.09 1019 10 16 0.00 0.00
1:59 pm 13:59 Mostly Cloudy 90 32.2 75 23.9 62 62 VRB 6 9 30.08 1019 10 16 0.00 0.00
2:59 pm 14:59 Mostly Cloudy 91 32.8 73 22.8 56 56 WSW 6 9 30.06 1018 10 16 0.00 0.00
3:59 pm 15:59 Mostly Cloudy 93 33.9 74 23.3 54 54 SW 8 13 30.04 1017 10 16 0.00 0.00
4:27 pm 16:27 Sunny with Thunderstorms 92 33.3 74 23.3 56 56 SSW 6 9 30.05 1018 10 16 0.00 0.00
4:59 pm 16:59 Partly Cloudy with Thunderstorms 89 31.7 75 23.9 63 63 S 6 9 30.05 1018 10 16 0.00 0.00
5:59 pm 17:59 Mostly Cloudy with Thunderstorms 87 30.6 76 24.4 70 70 ESE 3 6 30.04 1017 9 14 0.00 0.00
6:59 pm 18:59 Mostly Cloudy with Thunderstorms 82 27.8 66 18.9 58 58 S 8 13 30.05 1018 10 16 0.00 0.00
7:59 pm 19:59 Mostly Cloudy with Thunderstorms 81 27.2 65 18.3 58 58 SSE 5 7 30.07 1018 10 16 0.00 0.00
8:59 pm 20:59 Mostly Cloudy with Thunderstorms 76 24.4 70 21.1 82 82 SSW 7 11 30.09 1019 6 10 0.00 0.00
9:11 pm 21:11 Mostly Cloudy with Light Rain 75 23.9 71 21.7 88 88 SSW 6 9 30.08 1019 7 11 0.00 0.00
9:59 pm 21:59 Mostly Cloudy 75 23.9 72 22.2 90 90 WSW 3 6 30.07 1018 10 16 0.06 1.52
10:59 pm 22:59 Mostly Cloudy 76 24.4 73 22.8 91 91 SSW 5 7 30.08 1019 10 16 0.00 0.00
11:59 pm 23:59 Mostly Cloudy 76 24.4 74 23.3 94 94 VRB 3 6 30.09 1019 10 16 0.00 0.00

Powered by AerisWeather